Simultaneous Nadir Overpasses (SNOs) Predictions

Prediction of SNOs between AQUA and METOP-B Satellite Orbit:

Table of predicted SNOs for the next 14.0 days since TLE Epoch: 4/20/2017
Index Date (AQUA) Time (AQUA) Lat,Lon (AQUA) SZA (AQUA ) Date (METOP-B) Time (METOP-B) Lat,Lon (METOP-B) SZA (METOP-B ) Distance(km) Time Diff (sec)
1 04/23/2017 13:52:06 73.76, -33.60 61.02 04/23/2017 13:51:42 73.75, -33.67 61.02 2.66 24
2 04/23/2017 14:41:32 -73.82, 133.91 118.93 04/23/2017 14:42:21 -73.85, 133.91 118.90 3.83 49
3 04/26/2017 08:36:42 -73.24,-133.70 120.44 04/26/2017 08:35:34 -73.21,-135.81 120.39 67.99 68
4 04/26/2017 09:26:20 73.80, 32.75 60.14 04/26/2017 09:26:02 73.78, 32.80 60.13 2.88 18
5 04/26/2017 10:15:47 -73.86,-159.74 119.81 04/26/2017 10:16:43 -73.84,-159.72 119.83 2.30 56
6 04/29/2017 04:11:02 -73.55, -67.91 121.00 04/29/2017 04:09:50 -73.49, -68.78 121.02 28.12 72
7 04/29/2017 05:00:34 73.79, 99.20 59.25 04/29/2017 05:00:23 73.80, 99.28 59.26 2.74 11
8 04/29/2017 05:50:01 -73.86, -93.30 120.70 04/29/2017 05:51:04 -73.87, -93.24 120.69 2.35 63
9 05/01/2017 23:45:19 -73.71, -1.82 121.69 05/01/2017 23:44:07 -73.72, -1.84 121.67 1.44 72
10 05/02/2017 00:34:48 73.80, 165.62 58.40 05/02/2017 00:34:45 73.78, 165.63 58.38 2.50 3
11 05/02/2017 01:24:15 -73.87, -26.88 121.55 05/02/2017 01:25:26 -73.85, -26.88 121.57 1.71 71
12 05/04/2017 19:19:32 -73.73, 64.58 122.49 05/04/2017 19:18:27 -73.75, 64.63 122.47 2.53 65
13 05/04/2017 20:09:01 73.82,-127.98 57.60 05/04/2017 20:09:05 73.81,-127.91 57.58 3.06 4




NCC Satellite Simultaneous Nadir Overpasses (SNOs) Prediction Service
